Williams, AZ

7:46 PM MST on January 21, 2017 (GMT -0700)
Williams

Weather History for KCMR - January, 2014

Change the Weather History Date:

Monday, January 20, 2014

  Actual Average (K40G) Record (K40G)
Temperature  
Mean Temperature 39 °F -  
Max Temperature 59 °F 44 °F 48 °F (2003)
Min Temperature 19 °F 34 °F 33 °F (1997)
Degree Days  
Heating Degree Days 26    
Moisture  
Dew Point 7 °F    
Average Humidity 36    
Maximum Humidity 68    
Minimum Humidity 7    
Precipitation  
Precipitation 0.00 in - - ()
Sea Level Pressure  
Sea Level Pressure 30.38 in    
Wind  
Wind Speed 8 mph (ESE)    
Max Wind Speed 12 mph    
Max Gust Speed -    
Visibility 10 miles    
Events      
Averages and records for this station are not official NWS values.
T = Trace of Precipitation, MM = Missing Value Source: NWS Daily Summary

Daily Weather History Graph

Daily Weather History Graph

Search for Another Location

Airport or City:

Trip Planner

Search our weather history database for the weather conditions in past years. The results will help you decide how hot, cold, wet, or windy it might be!

Date:

Astronomy

Jan. 20, 2014 Rise Set
Actual Time 7:35 AM MST 5:44 PM MST
Civil Twilight 7:07 AM MST 6:12 PM MST
Nautical Twilight 6:36 AM MST 6:43 PM MST
Astronomical Twilight 6:06 AM MST 7:13 PM MST
Moon 10:11 PM MST (1/20) 9:47 AM MST (1/20)
Length of Visible Light 11h 04m
Length of Day
10h 09m
Waning Gibbous, 82% of the Moon is Illuminated
Jan 20
Waning Gibbous
Jan 23
Last Quarter
Jan 30
New
Feb 6
First Quarter
Feb 14
Full

Hourly Weather History & Observations

Time (MST) Temp. Windchill Dew Point Humidity Pressure Visibility Wind Dir Wind Speed Gust Speed Precip Events Conditions
12:15 AM 26.6 °F 17.5 °F 12.2 °F 55% 30.34 in 10.0 mi SE 9.2 mph - N/A   Clear
12:35 AM 26.6 °F 16.2 °F 12.2 °F 55% 30.34 in 10.0 mi SE 11.5 mph - N/A   Clear
12:55 AM 24.8 °F 15.3 °F 12.2 °F 59% 30.33 in 10.0 mi SE 9.2 mph - N/A   Clear
1:15 AM 24.8 °F 14.0 °F 12.2 °F 59% 30.33 in 10.0 mi SE 11.5 mph - N/A   Clear
1:35 AM 24.8 °F 15.3 °F 12.2 °F 59% 30.33 in 10.0 mi SE 9.2 mph - N/A   Clear
1:55 AM 24.8 °F 15.3 °F 12.2 °F 59% 30.33 in 10.0 mi SE 9.2 mph - N/A   Clear
2:15 AM 24.8 °F 17.9 °F 12.2 °F 59% 30.32 in 10.0 mi SE 5.8 mph - N/A   Clear
2:35 AM 24.8 °F 14.0 °F 12.2 °F 59% 30.33 in 10.0 mi SE 11.5 mph - N/A   Clear
2:55 AM 24.8 °F 14.6 °F 12.2 °F 59% 30.33 in 10.0 mi SE 10.4 mph - N/A   Clear
3:15 AM 23.0 °F 13.1 °F 12.2 °F 63% 30.33 in 10.0 mi SE 9.2 mph - N/A   Clear
3:35 AM 23.0 °F 13.1 °F 12.2 °F 63% 30.34 in 10.0 mi SE 9.2 mph - N/A   Clear
3:55 AM 23.0 °F 13.9 °F 12.2 °F 63% 30.34 in 10.0 mi SE 8.1 mph - N/A   Clear
4:15 AM 23.0 °F 14.7 °F 12.2 °F 63% 30.33 in 10.0 mi SE 6.9 mph - N/A   Clear
4:35 AM 23.0 °F 13.9 °F 12.2 °F 63% 30.33 in 10.0 mi SE 8.1 mph - N/A   Clear
4:55 AM 23.0 °F 13.9 °F 10.4 °F 59% 30.33 in 10.0 mi SE 8.1 mph - N/A   Clear
5:15 AM 23.0 °F 12.4 °F 12.2 °F 63% 30.33 in 10.0 mi SE 10.4 mph - N/A   Clear
5:35 AM 23.0 °F 12.4 °F 10.4 °F 59% 30.33 in 10.0 mi SE 10.4 mph - N/A   Clear
5:55 AM 21.2 °F 10.1 °F 12.2 °F 68% 30.33 in 10.0 mi SE 10.4 mph - N/A   Clear
6:15 AM 19.4 °F 8.6 °F 10.4 °F 68% 30.33 in 10.0 mi SE 9.2 mph - N/A   Clear
6:35 AM 19.4 °F 9.5 °F 10.4 °F 68% 30.34 in 10.0 mi SE 8.1 mph - N/A   Clear
6:55 AM 19.4 °F 7.9 °F 10.4 °F 68% 30.34 in 10.0 mi SE 10.4 mph - N/A   Clear
7:15 AM 19.4 °F 8.6 °F 10.4 °F 68% 30.35 in 10.0 mi SE 9.2 mph - N/A   Clear
7:35 AM 21.2 °F 10.1 °F 10.4 °F 63% 30.35 in 10.0 mi SE 10.4 mph - N/A   Clear
7:55 AM 21.2 °F 10.1 °F 10.4 °F 63% 30.36 in 10.0 mi SE 10.4 mph - N/A   Clear
8:15 AM 21.2 °F 11.7 °F 10.4 °F 63% 30.36 in 10.0 mi SE 8.1 mph - N/A   Clear
8:35 AM 24.8 °F 16.1 °F 12.2 °F 59% 30.37 in 10.0 mi SE 8.1 mph - N/A   Clear
8:55 AM 28.4 °F 22.2 °F 12.2 °F 51% 30.37 in 10.0 mi SE 5.8 mph - N/A   Clear
9:15 AM 32.0 °F 25.6 °F 10.4 °F 41% 30.38 in 10.0 mi SE 6.9 mph - N/A   Clear
9:35 AM 37.4 °F 33.8 °F 14.0 °F 38% 30.38 in 10.0 mi SE 4.6 mph - N/A   Clear
9:55 AM 41.0 °F 39.0 °F 14.0 °F 33% 30.39 in 10.0 mi SE 3.5 mph - N/A   Clear
10:15 AM 46.4 °F 45.2 °F 10.4 °F 23% 30.39 in 10.0 mi East 3.5 mph - N/A   Clear
10:35 AM 50.0 °F - 8.6 °F 19% 30.40 in 10.0 mi Calm Calm - N/A   Clear
10:55 AM 50.0 °F - 8.6 °F 19% 30.40 in 10.0 mi NNE 4.6 mph - N/A   Clear
11:15 AM 51.8 °F - 6.8 °F 16% 30.40 in 10.0 mi North 4.6 mph - N/A   Clear
11:35 AM 53.6 °F - 6.8 °F 15% 30.40 in 10.0 mi Calm Calm - N/A   Clear
11:55 AM 53.6 °F - 6.8 °F 15% 30.39 in 10.0 mi NNE 5.8 mph - N/A   Clear
12:15 PM 55.4 °F - 6.8 °F 14% 30.38 in 10.0 mi NNE 5.8 mph - N/A   Clear
12:35 PM 55.4 °F - 5.0 °F 13% 30.37 in 10.0 mi NNE 5.8 mph - N/A   Clear
12:55 PM 55.4 °F - 5.0 °F 13% 30.36 in 10.0 mi North 6.9 mph - N/A   Clear
1:15 PM 57.2 °F - 5.0 °F 12% 30.36 in 10.0 mi NNW 4.6 mph - N/A   Clear
1:35 PM 57.2 °F - 5.0 °F 12% 30.35 in 10.0 mi NW 5.8 mph - N/A   Clear
1:55 PM 57.2 °F - 6.8 °F 13% 30.34 in 10.0 mi NNE 6.9 mph - N/A   Clear
2:15 PM 57.2 °F - 6.8 °F 13% 30.34 in 10.0 mi North 5.8 mph - N/A   Clear
2:35 PM 57.2 °F - 5.0 °F 12% 30.34 in 10.0 mi NW 4.6 mph - N/A   Clear
2:55 PM 57.2 °F - 3.2 °F 11% 30.34 in 10.0 mi NNW 9.2 mph - N/A   Clear
3:15 PM 59.0 °F - -2.2 °F 8% 30.35 in 10.0 mi North 8.1 mph - N/A   Clear
3:35 PM 57.2 °F - -7.6 °F 7% 30.36 in 10.0 mi NNE 9.2 mph - N/A   Clear
3:55 PM 57.2 °F - -4.0 °F 8% 30.36 in 10.0 mi North 9.2 mph - N/A   Clear
4:15 PM 57.2 °F - -7.6 °F 7% 30.37 in 10.0 mi NNE 9.2 mph - N/A   Clear
4:35 PM 55.4 °F - -5.8 °F 8% 30.38 in 10.0 mi NNE 10.4 mph - N/A   Clear
4:55 PM 53.6 °F - -2.2 °F 10% 30.38 in 10.0 mi NE 10.4 mph - N/A   Clear
5:15 PM 51.8 °F - -0.4 °F 12% 30.39 in 10.0 mi NE 8.1 mph - N/A   Clear
5:35 PM 50.0 °F - -0.4 °F 13% 30.39 in 10.0 mi North 6.9 mph - N/A   Clear
5:55 PM 46.4 °F 42.9 °F 1.4 °F 16% 30.40 in 10.0 mi NNE 6.9 mph - N/A   Clear
6:15 PM 44.6 °F 41.4 °F 1.4 °F 17% 30.40 in 10.0 mi NE 5.8 mph - N/A   Clear
6:35 PM 46.4 °F - 1.4 °F 16% 30.41 in 10.0 mi Calm Calm - N/A   Clear
6:55 PM 41.0 °F 38.0 °F 5.0 °F 23% 30.42 in 10.0 mi SE 4.6 mph - N/A   Clear
7:15 PM 39.2 °F 34.2 °F 5.0 °F 24% 30.42 in 10.0 mi SE 6.9 mph - N/A   Clear
7:35 PM 35.6 °F 28.0 °F 6.8 °F 30% 30.43 in 10.0 mi SSE 10.4 mph - N/A   Clear
7:55 PM 35.6 °F 28.6 °F 8.6 °F 33% 30.44 in 10.0 mi SSE 9.2 mph - N/A   Clear
8:15 PM 33.8 °F 27.7 °F 6.8 °F 32% 30.44 in 10.0 mi SE 6.9 mph - N/A   Clear
8:35 PM 32.0 °F 24.2 °F 6.8 °F 35% 30.44 in 10.0 mi SE 9.2 mph - N/A   Clear
8:55 PM 32.0 °F 24.8 °F 6.8 °F 35% 30.45 in 10.0 mi SE 8.1 mph - N/A   Clear
9:15 PM 35.6 °F 29.9 °F 3.2 °F 26% 30.45 in 10.0 mi SE 6.9 mph - N/A   Clear
9:35 PM 33.8 °F 27.7 °F 5.0 °F 30% 30.46 in 10.0 mi SSE 6.9 mph - N/A   Clear
9:55 PM 33.8 °F 28.6 °F 3.2 °F 28% 30.47 in 10.0 mi SSE 5.8 mph - N/A   Clear
10:15 PM 32.0 °F 26.4 °F 5.0 °F 32% 30.47 in 10.0 mi SE 5.8 mph - N/A   Clear
10:35 PM 32.0 °F 26.4 °F 5.0 °F 32% 30.48 in 10.0 mi SSE 5.8 mph - N/A   Clear
10:55 PM 28.4 °F 23.3 °F 6.8 °F 40% 30.48 in 10.0 mi SSE 4.6 mph - N/A   Clear
11:15 PM 32.0 °F 25.6 °F 6.8 °F 35% 30.48 in 10.0 mi SE 6.9 mph - N/A   Clear
11:35 PM 26.6 °F 19.1 °F 6.8 °F 43% 30.49 in 10.0 mi SE 6.9 mph - N/A   Clear
11:55 PM 32.0 °F 25.6 °F 6.8 °F 35% 30.49 in 10.0 mi SSE 6.9 mph - N/A   Clear